Location: Newark
(52.3500°N, 175.9667°E)
Time: 23:03:07
(UTC+00:00)

Altair - Pass Details

Date: 28 April 2021
Orbit: 1501 x 1683 km, 47.2° (Epoch: 06 May)

Event Time Altitude Azimuth Distance (km) Brightness Sun altitude
Rises 17:29:44 0° 249° (WSW) 4,903 9.4 4.8°
Reaches altitude 10° 17:32:57 10° 247° (WSW) 3,899 9.0 5.3°
Maximum altitude 17:42:43 63° 169° (S) 1,770 8.0 6.7°
Drops below altitude 10° 17:52:07 10° 92° (E) 3,764 11.5 8.1°
Sets 17:55:10 0° 89° (E) 4,725 12.1 8.6°
